Weather History for Springfield, VT

Change the Weather History Date:

Tuesday, February 5, 2013

  Actual Average Record
Temperature  
Mean Temperature 15 °F 21 °F  
Max Temperature 28 °F 31 °F 50 °F (2005)
Min Temperature 2 °F 11 °F -2 °F (2009)
Degree Days  
Heating Degree Days 50 44  
Month to date heating degree days 234 223  
Since 1 July heating degree days 3958 4495  
Moisture  
Dew Point 3 °F    
Average Humidity 60    
Maximum Humidity 86    
Minimum Humidity 33    
Precipitation  
Precipitation 0.00 in 0.10 in 0.94 in (2008)
Month to date precipitation 0.01 0.45  
Year to date precipitation 1.34 3.37  
Sea Level Pressure  
Sea Level Pressure 29.96 in    
Wind  
Wind Speed 1 mph (ENE)    
Max Wind Speed 10 mph    
Max Gust Speed 13 mph    
Visibility 10 miles    
Events      
T = Trace of Precipitation, MM = Missing Value Source: NWS Daily Summary

Daily Weather History Graph

Daily Weather History Graph

Search for Another Location

Airport:

Trip Planner

Search our weather history database for the weather conditions in past years. The results will help you decide how hot, cold, wet, or windy it might be!

Date:

Astronomy

Feb. 05, 2013 Rise Set
Actual Time 7:01 AM EST 5:07 PM EST
Civil Twilight 6:31 AM EST 5:37 PM EST
Nautical Twilight 5:57 AM EST 6:11 PM EST
Astronomical Twilight 5:23 AM EST 6:44 PM EST
Moon 2:43 AM EST (2/5) 12:19 PM EST (2/5)
Length of Visible Light 11h 06m
Length of Day
10h 06m
Waning Crescent, 27% of the Moon is Illuminated
Feb 5
Waning Crescent
Feb 10
New
Feb 17
First Quarter
Feb 25
Full
Mar 4
Last Quarter

Hourly Weather History & Observations

Time (EST) Temp. Windchill Dew Point Humidity Pressure Visibility Wind Dir Wind Speed Gust Speed Precip Events Conditions
12:54 AM 10.9 °F - -0.9 °F 59% 29.93 in 10.0 mi Calm Calm - N/A   Clear
1:54 AM 9.0 °F - -0.9 °F 64% 29.94 in 10.0 mi Calm Calm - N/A   Partly Cloudy
2:54 AM 7.0 °F - -0.9 °F 70% 29.94 in 10.0 mi Calm Calm - N/A   Partly Cloudy
3:54 AM 6.1 °F - -0.9 °F 73% 29.95 in 10.0 mi Calm Calm - N/A   Clear
4:54 AM 5.0 °F - -0.9 °F 76% 29.96 in 10.0 mi Calm Calm - N/A   Clear
5:54 AM 3.9 °F - -2.0 °F 76% 29.97 in 10.0 mi Calm Calm - N/A   Clear
6:54 AM 3.0 °F - -2.9 °F 76% 30.00 in 7.0 mi Calm Calm - N/A   Clear
7:54 AM 3.9 °F - -0.9 °F 80% 30.03 in 10.0 mi Calm Calm - N/A   Clear
8:54 AM 9.0 °F - 3.0 °F 77% 30.04 in 10.0 mi Calm Calm - N/A   Clear
9:54 AM 16.0 °F - 3.0 °F 57% 30.03 in 10.0 mi Calm Calm - N/A   Clear
10:54 AM 19.9 °F - 3.0 °F 48% 30.02 in 10.0 mi Calm Calm - N/A   Clear
11:54 AM 21.9 °F - 3.0 °F 44% 29.99 in 10.0 mi Calm Calm - N/A   Clear
12:54 PM 25.0 °F 18.1 °F 3.0 °F 39% 29.96 in 10.0 mi SE 5.8 mph - N/A   Clear
1:54 PM 26.1 °F 20.5 °F 1.9 °F 35% 29.94 in 10.0 mi NW 4.6 mph - N/A   Clear
2:54 PM 27.0 °F - 1.9 °F 34% 29.93 in 10.0 mi Calm Calm - N/A   Clear
3:54 PM 26.1 °F 19.4 °F 3.9 °F 39% 29.93 in 10.0 mi SE 5.8 mph - N/A   Clear
4:54 PM 25.0 °F - 5.0 °F 43% 29.93 in 10.0 mi Calm Calm - N/A   Clear
5:54 PM 24.1 °F - 5.0 °F 44% 29.93 in 10.0 mi Calm Calm - N/A   Partly Cloudy
6:54 PM 21.9 °F 17.2 °F 8.1 °F 55% 29.93 in 9.0 mi NNW 3.5 mph - N/A   Overcast
7:54 PM 21.0 °F - 8.1 °F 57% 29.94 in 10.0 mi Calm Calm - N/A   Overcast
8:54 PM 21.0 °F - 9.0 °F 60% 29.94 in 10.0 mi Calm Calm - N/A   Overcast
9:54 PM 19.9 °F - 10.0 °F 65% 29.93 in 10.0 mi Calm Calm - N/A   Partly Cloudy
10:54 PM 19.9 °F - 10.0 °F 65% 29.93 in 10.0 mi Calm Calm - N/A   Overcast
11:54 PM 19.9 °F - 10.0 °F 65% 29.93 in 10.0 mi Calm Calm - N/A   Overcast